Location: Sternwarte-Kraichtal
(49.1689°N, 8.6996°E)
Time: 19:37:48
(UTC+02:00)

Vanguard 2 Rocket - Pass Details

Date: 30 May 2022
Orbit: 553 x 3323 km, 32.9° (Epoch: 02 July)

Event Time Altitude Azimuth Distance (km) Brightness Sun altitude
Rises 19:00:06 0° 272° (W) 6,856 12.9 20.0°
Reaches altitude 10° 19:06:31 10° 260° (W) 5,416 12.4 18.9°
Maximum altitude 19:16:32 22° 219° (SW) 3,650 10.4 17.3°
Drops below altitude 10° 19:23:44 10° 174° (S) 3,740 9.9 16.2°
Sets 19:27:08 0° 158° (SSE) 4,317 10.0 15.7°
